DW0479 Weather Reports


time (UTC)temp
C
wind
direction
speed
KPH
gust
KPH
rain 1hr
cm
rain 24hr
cm
rain mn
cm
humidity
%
barometer
mb
20260904000358 25 152 1.6 6.4 0.05 0.05 0.05 92 1014.0
20260903235840 25 154 1.6 6.4 0.03 0.03 0.03 91 1014.0
20260903234356 25 163 3.2 6.4 0.03 0.03 0.03 90 1014.0
20260903233355 25 142 3.2 12.9 0.00 0.00 0.00 89 1014.1
20260903232353 25 156 1.6 6.4 0.00 0.00 0.00 88 1014.3
20260903231355 25 157 1.6 9.7 0.00 0.00 0.00 86 1014.2
20260903230353 26 136 6.4 14.5 0.00 0.00 0.00 86 1014.1
20260903225839 26 149 4.8 12.9 0.00 0.00 0.00 86 1013.9
20260903224355 26 152 3.2 14.5 0.00 0.00 0.00 86 1013.9
20260903223823 26 158 6.4 16.1 0.00 0.00 0.00 84 1013.9
20260903222348 26 158 6.4 16.1 0.00 0.00 0.00 82 1013.8
20260903221347 27 173 6.4 14.5 0.00 0.00 0.00 82 1013.6
20260903220831 27 140 9.7 20.9 0.00 0.00 0.00 80 1013.5
20260903215348 28 150 6.4 20.9 0.00 0.00 0.00 80 1013.5
20260903214825 29 129 8.0 17.7 0.00 0.00 0.00 80 1013.1
20260903213343 29 100 8.0 19.3 0.00 0.00 0.00 80 1013.0
20260903212344 30 133 6.4 19.3 0.00 0.00 0.00 78 1013.0
20260903211815 30 88 6.4 19.3 0.00 0.00 0.00 75 1012.5
20260903210334 30 116 8.0 19.3 0.00 0.00 0.00 72 1013.0
20260903205334 31 104 9.7 19.3 0.00 0.00 0.00 71 1012.7
20260903204333 31 112 8.0 20.9 0.00 0.00 0.00 71 1012.5
20260903203335 31 123 8.0 20.9 0.00 0.00 0.00 73 1012.3
20260903202807 31 79 11.3 22.5 0.00 0.00 0.00 75 1012.4
20260903201326 31 98 11.3 24.1 0.00 0.00 0.00 74 1012.3
20260903200324 32 114 11.3 25.7 0.00 0.00 0.00 71 1012.5
20260903195325 32 94 11.3 25.7 0.00 0.00 0.00 71 1012.6
20260903194311 33 81 6.4 20.9 0.00 0.00 0.00 71 1012.8
20260903193310 33 61 9.7 20.9 0.00 0.00 0.00 69 1013.0
20260903193237 34 351 8.0 17.7 0.00 0.00 0.00 67 1013.2
20260903191308 33 29 8.0 17.7 0.00 0.00 0.00 71 1013.4
20260903190743 33 29 8.0 17.7 0.00 0.00 0.00 70 1013.4
20260903190231 33 67 8.0 16.1 0.00 0.00 0.00 72 1013.4
20260903184307 33 79 6.4 17.7 0.00 0.00 0.00 69 1013.2
20260903183307 33 23 8.0 16.1 0.00 0.00 0.00 71 1013.3
20260903182308 33 23 4.8 12.9 0.00 0.00 0.00 72 1013.3
20260903181259 32 10 9.7 17.7 0.00 0.00 0.00 73 1013.5
20260903180259 32 357 11.3 20.9 0.00 0.00 0.00 76 1013.6
20260903175259 33 42 4.8 16.1 0.00 0.00 0.00 70 1013.9
20260903174301 33 157 3.2 11.3 0.00 0.00 0.00 68 1014.0
20260903173248 32 113 3.2 9.7 0.00 0.00 0.00 67 1014.1
20260903172247 32 258 3.2 9.7 0.00 0.00 0.00 70 1014.1
20260903172203 32 136 4.8 12.9 0.00 0.00 0.00 69 1014.1
20260903170248 32 186 4.8 11.3 0.00 0.00 0.00 68 1014.2
20260903165249 32 107 4.8 12.9 0.00 0.00 0.00 69 1014.5
20260903164246 32 193 4.8 12.9 0.00 0.00 0.00 68 1014.6
20260903163246 31 195 4.8 11.3 0.00 0.00 0.00 70 1014.9
20260903162244 31 190 4.8 16.1 0.00 0.00 0.00 70 1015.0
20260903161246 31 124 4.8 12.9 0.00 0.00 0.00 74 1015.0
20260903160231 31 200 4.8 11.3 0.00 0.00 0.00 75 1015.1
20260903160151 30 138 3.2 9.7 0.00 0.00 0.00 76 1015.1
20260903154231 31 163 3.2 11.3 0.00 0.00 0.00 75 1015.0
20260903153231 31 110 4.8 11.3 0.00 0.00 0.00 77 1015.1
20260903152228 30 175 4.8 12.9 0.00 0.00 0.00 75 1015.2
20260903151226 30 165 6.4 12.9 0.00 0.00 0.00 75 1015.2
20260903150711 30 163 6.4 12.9 0.00 0.00 0.00 77 1015.3
20260903145227 31 174 4.8 12.9 0.00 0.00 0.00 77 1015.2
20260903144219 30 168 4.8 14.5 0.00 0.00 0.00 77 1015.2
20260903143218 30 202 4.8 11.3 0.00 0.00 0.00 78 1015.1
20260903142218 30 173 3.2 12.9 0.00 0.00 0.00 80 1015.2
20260903141220 30 233 3.2 8.0 0.00 0.00 0.00 85 1015.0
20260903140703 28 182 3.2 9.7 0.00 0.00 0.00 83 1014.9
20260903135219 29 135 4.8 11.3 0.00 0.00 0.00 83 1014.9
20260903134220 28 143 3.2 9.7 0.00 0.00 0.00 86 1014.9
20260903133218 28 110 1.6 11.3 0.00 0.00 0.00 86 1014.9
20260903132217 28 110 1.6 11.3 0.00 0.00 0.00 85 1014.9
20260903131217 28 92 3.2 6.4 0.00 0.00 0.00 87 1014.9
20260903130216 28 102 3.2 9.7 0.00 0.00 0.00 88 1014.8
20260903125659 27 51 3.2 8.0 0.00 0.00 0.00 89 1014.6
20260903124700 27 48 3.2 6.4 0.00 0.00 0.00 91 1014.6
20260903123208 27 48 3.2 8.0 0.00 0.00 0.00 93 1014.7
20260903122208 26 50 3.2 8.0 0.00 0.00 0.00 93 1014.5
20260903121207 26 84 3.2 9.7 0.00 0.00 0.00 94 1014.5
20260903121133 26 28 1.6 4.8 0.00 0.00 0.00 94 1014.4
20260903115207 25 28 0.0 3.2 0.00 0.00 0.00 94 1014.3
20260903115119 25 28 0.0 4.8 0.00 0.00 0.00 94 1014.1
20260903113157 25 28 1.6 4.8 0.00 0.00 0.00 94 1013.8
20260903112635 25 28 1.6 4.8 0.00 0.00 0.00 94 1013.6
20260903111154 25 28 3.2 6.4 0.00 0.00 0.00 94 1013.6
20260903110153 25 27 3.2 6.4 0.00 0.00 0.00 94 1013.5
20260903105154 25 27 3.2 8.0 0.00 0.00 0.00 94 1013.4
20260903104152 25 10 3.2 6.4 0.00 0.00 0.00 94 1013.3
20260903103151 25 116 3.2 4.8 0.00 0.00 0.00 94 1013.1
20260903102618 25 116 0.0 3.2 0.00 0.00 0.00 94 1013.2
20260903101138 25 116 0.0 0.0 0.00 0.00 0.00 94 1013.3
20260903100137 25 116 0.0 1.6 0.00 0.00 0.00 94 1013.4
20260903095136 25 116 0.0 0.0 0.00 0.00 0.00 94 1013.4
20260903094137 25 116 0.0 0.0 0.00 0.00 0.00 94 1013.3
20260903093136 25 116 0.0 1.6 0.00 0.00 0.00 94 1013.2
20260903092136 25 116 0.0 0.0 0.00 0.00 0.00 94 1013.2
20260903091610 25 116 0.0 0.0 0.00 0.00 0.00 94 1013.2
20260903090136 25 116 0.0 0.0 0.00 0.00 0.00 94 1013.1
20260903085617 25 116 0.0 1.6 0.00 0.00 0.00 94 1013.1
20260903084131 25 116 0.0 0.0 0.00 0.00 0.00 94 1013.1
20260903083133 25 116 0.0 0.0 0.00 0.00 0.00 94 1013.2
20260903082132 25 116 0.0 0.0 0.00 0.00 0.00 93 1013.1
20260903081133 25 116 0.0 0.0 0.00 0.00 0.00 93 1013.1
20260903080119 25 116 0.0 0.0 0.00 0.00 0.00 93 1013.2
20260903075604 25 116 0.0 0.0 0.00 0.00 0.00 93 1013.2
20260903074117 25 116 0.0 0.0 0.00 0.00 0.00 93 1013.2
20260903074044 25 116 0.0 0.0 0.00 0.00 0.00 93 1013.2
20260903072122 25 116 0.0 0.0 0.00 0.00 0.00 93 1013.5
20260903071103 25 116 0.0 3.2 0.00 0.00 0.00 93 1013.6
20260903070541 25 116 1.6 4.8 0.00 0.00 0.00 93 1013.5
20260903065104 26 116 1.6 3.2 0.00 0.00 0.00 93 1013.6
20260903064105 26 116 1.6 3.2 0.00 0.00 0.00 92 1013.6
20260903063106 26 116 1.6 4.8 0.00 0.00 0.00 92 1013.5
20260903062055 26 116 0.0 0.0 0.00 0.00 0.00 92 1013.6
20260903061054 26 116 0.0 0.0 0.00 0.00 0.00 92 1013.7
20260903060053 26 116 0.0 0.0 0.00 0.00 0.00 92 1013.8
20260903060012 26 116 0.0 3.2 0.00 0.00 0.00 92 1013.9
20260903054055 26 116 0.0 3.2 0.00 0.00 0.00 91 1013.9
20260903053052 26 116 0.0 1.6 0.00 0.00 0.00 91 1014.0
20260903052526 26 116 0.0 3.2 0.00 0.00 0.00 91 1014.1
20260903051051 26 116 0.0 4.8 0.00 0.00 0.00 91 1014.2
20260903050053 26 116 1.6 4.8 0.00 0.00 0.00 91 1014.3
20260903045046 26 116 1.6 4.8 0.00 0.00 0.00 90 1014.5
20260903044046 26 116 3.2 6.4 0.00 0.00 0.00 90 1014.6
20260903043046 26 101 4.8 11.3 0.00 0.00 0.00 90 1014.7
20260903042045 26 116 3.2 9.7 0.00 0.00 0.00 90 1014.8
20260903041046 26 103 3.2 9.7 0.00 0.00 0.00 90 1015.0
20260903040041 26 122 1.6 6.4 0.00 0.00 0.00 90 1014.8
20260903035040 27 122 1.6 6.4 0.00 0.00 0.00 89 1014.9
20260903034040 27 122 3.2 12.9 0.00 0.00 0.00 89 1014.8
20260903033040 27 117 3.2 9.7 0.00 0.00 0.00 89 1014.9
20260903032515 27 97 3.2 9.7 0.00 0.00 0.00 88 1015.0
20260903031029 27 103 3.2 12.9 0.00 0.00 0.00 88 1014.8
20260903030027 27 96 1.6 6.4 0.00 0.00 0.00 88 1015.1
20260903025028 27 96 1.6 3.2 0.00 0.00 0.00 87 1015.1
20260903024029 27 96 0.0 3.2 0.00 0.00 0.00 87 1015.2
20260903023027 27 96 1.6 8.0 0.00 0.00 0.00 87 1014.9
20260903022027 27 99 3.2 9.7 0.00 0.00 0.00 87 1014.9
20260903021508 27 140 4.8 12.9 0.00 0.00 0.00 86 1014.8
20260903020518 27 69 3.2 8.0 0.00 0.00 0.00 86 1014.7
20260903015023 27 94 4.8 14.5 0.00 0.00 0.00 86 1014.8
20260903014019 27 79 3.2 11.3 0.00 0.00 0.00 86 1014.7
20260903013021 27 59 3.2 9.7 0.00 0.00 0.00 86 1014.5
20260903012509 27 85 4.8 12.9 0.00 0.00 0.00 85 1014.4
20260903011020 27 79 4.8 14.5 0.00 0.00 0.00 85 1014.3
20260903010019 28 88 4.8 11.3 0.00 0.00 0.00 84 1014.4
20260903005021 28 59 3.2 11.3 0.00 0.00 0.00 84 1014.1
20260903004019 28 59 4.8 9.7 0.00 0.00 0.00 84 1014.0
20260903003017 28 40 6.4 11.3 0.00 0.00 0.00 84 1013.8
20260903002018 28 39 3.2 9.7 0.00 0.00 0.00 84 1013.8